Location: Beaja
(6.8247°N, 10.8497°W)
Time: 21:42:50
(UTC+00:00)

Daily predictions for brighter satellites

Satellite Brightness Start Highest point End
(mag) Time Altitude Azimuth Time Altitude Azimuth Time Altitude Azimuth
VEP-3 3.5 18:41:04 10° WNW 18:46:38 75° NNE 19:05:13 10° ESE
Cosmos 2112 Rocket 4.2 18:49:40 10° N 18:54:44 50° ENE 18:59:51 10° SSE
Palapa 6 Rocket 4.4 18:52:34 10° WNW 18:55:54 26° NNW 18:59:04 10° NE
Cosmos 1680 Rocket 3.5 18:51:24 10° N 18:56:36 66° ENE 19:01:50 10° SSE
TSX-5 3.6 18:54:25 10° S 18:57:24 43° ESE 19:00:35 10° NNE
Cosmos 1603 4.2 18:53:58 10° N 18:59:07 38° ENE 19:04:15 10° SE
USA 215 3.3 18:54:00 10° SE 19:00:31 74° NE 19:07:02 10° NNW
NOAA 11 4.2 18:57:25 10° SSE 19:02:53 69° ENE 19:08:19 10° N
Ariane H10+ 1.5 19:02:28 10° WSW 19:03:55 27° S 19:05:27 10° ESE
NATO 3D Rocket 4.3 18:57:07 10° W 19:04:00 55° NNW 19:09:04 10° ENE
FengYun 1-2 T 4.3 18:59:13 10° SSE 19:04:45 87° ENE 19:10:20 10° NNW
Cosmos 2151 Rocket 3.9 19:01:19 10° SSE 19:05:30 43° E 19:09:42 10° NNE
GP-B 4.1 19:03:50 10° N 19:08:08 53° W 19:12:27 10° SSW
Cosmos 1891 Rocket 4.4 19:02:59 10° S 19:09:13 77° E 19:15:18 10° N
COSMOS 2455 4.4 19:08:25 10° SE 19:11:22 14° ESE 19:13:33 12° E
Okean O Rocket 4.2 19:09:47 10° SSW 19:13:27 25° W 19:17:08 10° NW
MOS 1 Rocket 3.4 19:10:18 10° NNE 19:14:20 42° E 19:18:29 10° S
Cosmos 1805 4.4 19:13:53 10° SE 19:16:54 22° E 19:19:55 10° NE
SEDSat Delta rocket 3.5 19:16:17 10° NW 19:21:54 63° NNE 19:25:45 16° ESE
RESURS DK-1 4.2 19:20:51 10° SE 19:22:16 14° ESE 19:22:16 14° ESE
H-2A R/B 3.3 19:22:41 16° E 19:23:38 17° ENE 19:26:47 10° NE
CZ-2C R/B 3.6 19:20:44 10° NE 19:25:26 27° E 19:30:05 10° SSE
SL-8 R/B 3.8 19:20:49 10° SW 19:25:37 78° NW 19:30:24 10° NE
Cosmos 1939 Rocket 2.9 19:23:01 10° S 19:27:06 85° W 19:31:13 10° NNW
Cosmos 1975 Rocket 2.9 19:23:51 10° N 19:28:09 79° E 19:32:29 10° S
Meteor 1-21 4.2 19:25:01 10° N 19:30:37 86° E 19:36:16 10° S
Milstar 3 4.1 19:26:28 10° SSW 19:32:04 26° SE 19:36:05 18° ESE
Cosmos 2278 Rocket 2.5 19:33:04 10° S 19:38:23 44° ESE 19:43:42 10° NE
Centaur AC-119 4.0 19:34:55 10° W 19:40:23 26° NW 19:42:30 13° NNE
Cosmos 2034 Rocket 4.1 19:37:34 10° S 19:43:56 81° W 19:50:18 10° N
USA 234 3.2 19:40:44 10° NE 19:47:17 90° SE 19:53:50 10° SW
Okean 1 Rocket 3.0 19:44:45 10° S 19:49:09 66° E 19:53:35 10° NNE
Delta 168 2.7 19:44:20 10° WNW 19:49:22 77° NNE 19:50:22 48° E
Nadezhda 4 Rocket 4.4 19:43:56 10° NNE 19:49:25 35° E 19:53:29 17° SE
Cosmos 1707 2.5 19:47:16 10° N 19:51:04 80° E 19:54:54 10° S
Cosmos 1766 3.0 19:54:44 10° S 19:58:36 76° E 20:01:42 15° N
CSL-04 Debris 4.0 19:55:14 10° SSE 20:00:34 65° ENE 20:05:53 10° N
YAOGAN 1 2.8 19:56:45 10° S 20:01:03 69° WSW 20:05:19 10° NNW
CSL-04 Rocket 3.5 19:57:07 10° SSE 20:02:24 64° ENE 20:07:45 10° N
Cosmos 1634 Rocket 3.8 20:05:37 10° S 20:11:43 68° E 20:17:49 10° N
CZ-4 R/B 3.5 20:13:52 10° SSW 20:17:30 29° W 20:21:10 10° NW
SJ-11-01 4.3 20:20:09 58° S 20:21:02 77° WSW 20:25:44 10° NNW
Cosmos 1025 Rocket 3.5 20:18:07 10° NNW 20:22:26 59° W 20:23:29 45° SW
CZ-2C R/B 3.6 20:19:15 10° S 20:24:08 56° W 20:29:18 10° NNW
ARIANE 5 R/B 2.9 20:21:29 10° W 20:27:14 45° WSW 20:27:14 45° WSW
Sea Lan Dem Rocket 4.0 20:32:11 10° WSW 20:33:55 21° SW 20:33:55 21° SW
CZ-4C R/B 3.0 20:36:59 10° SW 20:40:14 36° W 20:40:14 36° W
Cosmos 1867 4.1 20:36:56 10° NNW 20:41:47 55° W 20:41:47 55° W
COSMOS 2455 3.7 20:51:13 10° SW 20:56:51 46° WNW 20:56:51 46° WNW
H-2A R/B 3.9 21:03:19 25° W 21:03:19 25° W 21:06:52 10° NW
